TimeMST,TemperatureF,Dew PointF,Humidity,Sea Level PressureIn,VisibilityMPH,Wind Direction,Wind SpeedMPH,Gust SpeedMPH,PrecipitationIn,Events,Conditions,WindDirDegrees,DateUTC
12:53 AM,21.9,16.0,78,30.37,10.0,SSW,10.4,-,N/A,,Clear,200,2012-11-27 07:53:00
1:53 AM,19.0,14.0,81,30.35,10.0,SSW,9.2,-,N/A,,Clear,210,2012-11-27 08:53:00
2:53 AM,19.0,14.0,81,30.32,10.0,SSW,6.9,-,N/A,,Clear,210,2012-11-27 09:53:00
3:53 AM,18.0,14.0,84,30.29,10.0,WSW,5.8,-,N/A,,Clear,240,2012-11-27 10:53:00
4:53 AM,21.0,17.1,85,30.27,10.0,SW,11.5,-,N/A,,Clear,220,2012-11-27 11:53:00
5:53 AM,21.0,17.1,85,30.26,10.0,WSW,9.2,-,N/A,,Clear,240,2012-11-27 12:53:00
6:53 AM,19.0,16.0,88,30.27,10.0,WSW,8.1,-,N/A,,Clear,240,2012-11-27 13:53:00
7:53 AM,21.0,16.0,81,30.28,10.0,WSW,6.9,-,N/A,,Clear,240,2012-11-27 14:53:00
8:53 AM,28.0,21.0,75,30.27,10.0,West,8.1,-,N/A,,Clear,260,2012-11-27 15:53:00
9:53 AM,37.9,25.0,60,30.25,10.0,Variable,3.5,-,N/A,,Clear,0,2012-11-27 16:53:00
10:53 AM,46.9,25.0,42,30.22,10.0,NW,5.8,-,N/A,,Clear,310,2012-11-27 17:53:00
11:53 AM,54.0,21.9,29,30.17,10.0,NW,6.9,-,N/A,,Clear,320,2012-11-27 18:53:00
12:53 PM,57.9,17.1,20,30.15,10.0,NNW,3.5,-,N/A,,Clear,340,2012-11-27 19:53:00
1:53 PM,59.0,15.1,18,30.14,10.0,North,4.6,-,N/A,,Clear,360,2012-11-27 20:53:00
2:53 PM,57.9,12.9,17,30.16,10.0,NNE,4.6,-,N/A,,Clear,30,2012-11-27 21:53:00
3:53 PM,51.1,14.0,23,30.20,10.0,ENE,4.6,-,N/A,,Clear,60,2012-11-27 22:53:00
4:53 PM,39.9,16.0,38,30.25,10.0,NE,6.9,-,N/A,,Clear,50,2012-11-27 23:53:00
5:53 PM,35.1,16.0,46,30.27,10.0,NE,9.2,-,N/A,,Clear,50,2012-11-28 00:53:00
6:53 PM,32.0,17.1,54,30.30,10.0,SSE,5.8,-,N/A,,Clear,160,2012-11-28 01:53:00
7:53 PM,25.0,16.0,69,30.35,10.0,NE,5.8,-,N/A,,Clear,50,2012-11-28 02:53:00
8:53 PM,30.0,19.0,64,30.33,10.0,Calm,Calm,-,N/A,,Clear,0,2012-11-28 03:53:00
9:53 PM,21.0,14.0,74,30.35,10.0,NE,4.6,-,N/A,,Clear,40,2012-11-28 04:53:00
10:53 PM,24.1,16.0,71,30.32,10.0,Calm,Calm,-,N/A,,Clear,0,2012-11-28 05:53:00
11:53 PM,23.0,16.0,74,30.31,10.0,Calm,Calm,-,N/A,,Clear,0,2012-11-28 06:53:00